| time (UTC) | temp F | wind direction | speed MPH | gust MPH | rain 1hr in | rain 24hr in | rain mn in | humidity % | barometer mb |
| 20260505213607 | 75 | 161 | 8.0 | 21.0 | 0.00 | 0.00 | 0.00 | 42 | 1009.4 |
| 20260505213109 | 75 | 193 | 9.0 | 23.0 | 0.00 | 0.00 | 0.00 | 42 | 1009.3 |
| 20260505212613 | 76 | 222 | 10.0 | 23.0 | 0.00 | 0.00 | 0.00 | 41 | 1009.4 |
| 20260505212126 | 76 | 195 | 10.0 | 22.0 | 0.00 | 0.00 | 0.00 | 42 | 1009.3 |
| 20260505211637 | 76 | 186 | 8.0 | 21.0 | 0.00 | 0.00 | 0.00 | 43 | 1009.1 |
| 20260505211138 | 77 | 228 | 8.0 | 19.0 | 0.00 | 0.00 | 0.00 | 44 | 1009.1 |
| 20260505210618 | 77 | 229 | 9.0 | 19.0 | 0.00 | 0.00 | 0.00 | 43 | 1009.2 |
| 20260505210115 | 77 | 178 | 9.0 | 23.0 | 0.00 | 0.00 | 0.00 | 43 | 1009.1 |
| 20260505205611 | 78 | 168 | 9.0 | 23.0 | 0.00 | 0.00 | 0.00 | 43 | 1009.1 |
| 20260505205110 | 79 | 164 | 8.0 | 19.0 | 0.00 | 0.00 | 0.00 | 43 | 1009.1 |
| 20260505204605 | 79 | 162 | 8.0 | 19.0 | 0.00 | 0.00 | 0.00 | 41 | 1009.1 |
| 20260505204107 | 80 | 219 | 7.0 | 17.0 | 0.00 | 0.00 | 0.00 | 46 | 1009.1 |
| 20260505203607 | 80 | 226 | 7.0 | 19.0 | 0.00 | 0.00 | 0.00 | 45 | 1009.1 |
| 20260505203058 | 80 | 224 | 6.0 | 19.0 | 0.00 | 0.00 | 0.00 | 42 | 1009.0 |
| 20260505202558 | 80 | 230 | 8.0 | 19.0 | 0.00 | 0.00 | 0.00 | 41 | 1009.1 |
| 20260505202058 | 79 | 174 | 8.0 | 19.0 | 0.00 | 0.00 | 0.00 | 42 | 1008.9 |
| 20260505201553 | 79 | 213 | 8.0 | 20.0 | 0.00 | 0.00 | 0.00 | 46 | 1009.3 |
| 20260505201103 | 79 | 170 | 7.0 | 20.0 | 0.00 | 0.00 | 0.00 | 43 | 1009.1 |
| 20260505200555 | 79 | 220 | 6.0 | 18.0 | 0.00 | 0.00 | 0.00 | 49 | 1009.2 |
| 20260505200055 | 78 | 243 | 8.0 | 19.0 | 0.00 | 0.00 | 0.00 | 48 | 1009.3 |
| 20260505195554 | 78 | 208 | 8.0 | 19.0 | 0.00 | 0.00 | 0.00 | 44 | 1009.2 |
| 20260505195052 | 79 | 228 | 8.0 | 18.0 | 0.00 | 0.00 | 0.00 | 45 | 1009.4 |
| 20260505194551 | 79 | 198 | 8.0 | 18.0 | 0.00 | 0.00 | 0.00 | 45 | 1009.4 |
| 20260505194052 | 78 | 154 | 8.0 | 17.0 | 0.00 | 0.00 | 0.00 | 48 | 1009.4 |
| 20260505193553 | 78 | 178 | 8.0 | 18.0 | 0.00 | 0.00 | 0.00 | 46 | 1009.5 |
| 20260505193050 | 78 | 213 | 8.0 | 18.0 | 0.00 | 0.00 | 0.00 | 48 | 1009.6 |
| 20260505192550 | 78 | 168 | 7.0 | 16.0 | 0.00 | 0.00 | 0.00 | 46 | 1009.6 |
| 20260505192049 | 78 | 165 | 7.0 | 17.0 | 0.00 | 0.00 | 0.00 | 47 | 1009.7 |
| 20260505191548 | 78 | 217 | 7.0 | 19.0 | 0.00 | 0.00 | 0.00 | 49 | 1009.7 |
| 20260505191050 | 78 | 161 | 8.0 | 19.0 | 0.00 | 0.00 | 0.00 | 47 | 1009.8 |
| 20260505190550 | 77 | 176 | 9.0 | 21.0 | 0.00 | 0.00 | 0.00 | 47 | 1009.8 |
| 20260505190049 | 77 | 177 | 9.0 | 21.0 | 0.00 | 0.00 | 0.00 | 45 | 1009.9 |
| 20260505185548 | 77 | 165 | 7.0 | 21.0 | 0.00 | 0.00 | 0.00 | 45 | 1010.0 |
| 20260505185051 | 77 | 209 | 7.0 | 21.0 | 0.00 | 0.00 | 0.00 | 46 | 1010.1 |
| 20260505184552 | 77 | 214 | 8.0 | 23.0 | 0.00 | 0.00 | 0.00 | 46 | 1010.0 |
| 20260505184049 | 78 | 170 | 7.0 | 23.0 | 0.00 | 0.00 | 0.00 | 47 | 1010.3 |
| 20260505183550 | 77 | 196 | 6.0 | 14.0 | 0.00 | 0.00 | 0.00 | 50 | 1010.1 |
| 20260505183049 | 77 | 163 | 8.0 | 21.0 | 0.00 | 0.00 | 0.00 | 50 | 1010.3 |
| 20260505182548 | 77 | 166 | 9.0 | 22.0 | 0.00 | 0.00 | 0.00 | 46 | 1010.5 |
| 20260505182052 | 77 | 182 | 9.0 | 22.0 | 0.00 | 0.00 | 0.00 | 48 | 1010.6 |
| 20260505181548 | 78 | 182 | 8.0 | 19.0 | 0.00 | 0.00 | 0.00 | 47 | 1010.5 |
| 20260505181048 | 78 | 169 | 6.0 | 16.0 | 0.00 | 0.00 | 0.00 | 46 | 1010.7 |
| 20260505180548 | 78 | 231 | 6.0 | 19.0 | 0.00 | 0.00 | 0.00 | 51 | 1010.6 |
| 20260505180050 | 78 | 224 | 7.0 | 19.0 | 0.00 | 0.00 | 0.00 | 50 | 1010.7 |
| 20260505175548 | 78 | 245 | 7.0 | 18.0 | 0.00 | 0.00 | 0.00 | 53 | 1010.7 |
| 20260505175049 | 78 | 242 | 7.0 | 20.0 | 0.00 | 0.00 | 0.00 | 48 | 1010.8 |
| 20260505174549 | 77 | 214 | 7.0 | 20.0 | 0.00 | 0.00 | 0.00 | 48 | 1010.8 |
| 20260505174049 | 77 | 222 | 7.0 | 13.0 | 0.00 | 0.00 | 0.00 | 47 | 1010.7 |
| 20260505173549 | 77 | 220 | 8.0 | 15.0 | 0.00 | 0.00 | 0.00 | 50 | 1010.7 |
| 20260505173049 | 77 | 260 | 8.0 | 21.0 | 0.00 | 0.00 | 0.00 | 50 | 1010.9 |
| 20260505172549 | 77 | 211 | 8.0 | 21.0 | 0.00 | 0.00 | 0.00 | 46 | 1010.9 |
| 20260505172048 | 76 | 257 | 8.0 | 18.0 | 0.00 | 0.00 | 0.00 | 52 | 1010.8 |
| 20260505171547 | 77 | 255 | 8.0 | 21.0 | 0.00 | 0.00 | 0.00 | 50 | 1010.9 |
| 20260505171047 | 77 | 240 | 7.0 | 21.0 | 0.00 | 0.00 | 0.00 | 53 | 1010.9 |
| 20260505170546 | 77 | 208 | 6.0 | 14.0 | 0.00 | 0.00 | 0.00 | 51 | 1011.0 |
| 20260505170045 | 76 | 184 | 6.0 | 14.0 | 0.00 | 0.00 | 0.00 | 51 | 1010.9 |
| 20260505165550 | 76 | 217 | 7.0 | 15.0 | 0.00 | 0.00 | 0.00 | 52 | 1011.0 |
| 20260505165049 | 76 | 216 | 8.0 | 19.0 | 0.00 | 0.00 | 0.00 | 53 | 1011.1 |
| 20260505164546 | 76 | 192 | 8.0 | 19.0 | 0.00 | 0.00 | 0.00 | 52 | 1011.2 |
| 20260505164049 | 76 | 203 | 8.0 | 17.0 | 0.00 | 0.00 | 0.00 | 51 | 1011.3 |
| 20260505163544 | 76 | 205 | 9.0 | 18.0 | 0.00 | 0.00 | 0.00 | 49 | 1011.4 |
| 20260505163044 | 76 | 201 | 8.0 | 18.0 | 0.00 | 0.00 | 0.00 | 51 | 1011.4 |
| 20260505162545 | 75 | 181 | 7.0 | 18.0 | 0.00 | 0.00 | 0.00 | 52 | 1011.5 |
| 20260505162046 | 75 | 223 | 8.0 | 18.0 | 0.00 | 0.00 | 0.00 | 49 | 1011.6 |
| 20260505161548 | 75 | 198 | 7.0 | 15.0 | 0.00 | 0.00 | 0.00 | 52 | 1011.7 |
| 20260505161045 | 75 | 142 | 7.0 | 18.0 | 0.00 | 0.00 | 0.00 | 53 | 1011.7 |
| 20260505160545 | 74 | 188 | 7.0 | 18.0 | 0.00 | 0.00 | 0.00 | 54 | 1011.8 |
| 20260505153043 | 74 | 268 | 7.0 | 14.0 | 0.00 | 0.00 | 0.00 | 56 | 1011.9 |
| 20260505152546 | 74 | 217 | 6.0 | 16.0 | 0.00 | 0.00 | 0.00 | 52 | 1011.9 |
| 20260505152043 | 74 | 242 | 7.0 | 16.0 | 0.00 | 0.00 | 0.00 | 56 | 1012.1 |
| 20260505151543 | 73 | 257 | 7.0 | 16.0 | 0.00 | 0.00 | 0.00 | 56 | 1012.0 |
| 20260505151043 | 73 | 223 | 6.0 | 15.0 | 0.00 | 0.00 | 0.00 | 56 | 1011.9 |
| 20260505150543 | 73 | 224 | 6.0 | 15.0 | 0.00 | 0.00 | 0.00 | 54 | 1011.9 |
| 20260505140537 | 70 | 238 | 5.0 | 12.0 | 0.00 | 0.00 | 0.00 | 64 | 1011.9 |
| 20260505125038 | 63 | 230 | 6.0 | 12.0 | 0.00 | 0.00 | 0.00 | 68 | 1012.2 |
| 20260505124543 | 62 | 234 | 5.0 | 12.0 | 0.00 | 0.00 | 0.00 | 70 | 1012.3 |
| 20260505124034 | 62 | 240 | 5.0 | 12.0 | 0.00 | 0.00 | 0.00 | 71 | 1012.4 |
| 20260505123537 | 61 | 227 | 4.0 | 11.0 | 0.00 | 0.00 | 0.00 | 71 | 1012.5 |
| 20260505123035 | 60 | 214 | 3.0 | 11.0 | 0.00 | 0.00 | 0.00 | 74 | 1012.6 |
| 20260505122534 | 60 | 221 | 3.0 | 11.0 | 0.00 | 0.00 | 0.00 | 72 | 1012.6 |
| 20260505122036 | 60 | 197 | 2.0 | 6.0 | 0.00 | 0.00 | 0.00 | 74 | 1012.6 |
| 20260505121532 | 60 | 200 | 2.0 | 6.0 | 0.00 | 0.00 | 0.00 | 75 | 1012.6 |
| 20260505121035 | 59 | 208 | 3.0 | 10.0 | 0.00 | 0.00 | 0.00 | 74 | 1012.6 |
| 20260505120033 | 59 | 210 | 3.0 | 9.0 | 0.00 | 0.00 | 0.00 | 74 | 1012.7 |
| 20260505115532 | 58 | 165 | 4.0 | 9.0 | 0.00 | 0.00 | 0.00 | 74 | 1012.6 |
| 20260505115040 | 58 | 163 | 4.0 | 9.0 | 0.00 | 0.00 | 0.00 | 77 | 1012.5 |
| 20260505114534 | 57 | 140 | 3.0 | 9.0 | 0.00 | 0.00 | 0.00 | 79 | 1012.4 |
| 20260505114035 | 57 | 182 | 2.0 | 6.0 | 0.00 | 0.00 | 0.00 | 77 | 1012.3 |
| 20260505113532 | 56 | 177 | 1.0 | 5.0 | 0.00 | 0.00 | 0.00 | 77 | 1012.3 |
| 20260505113034 | 56 | 209 | 1.0 | 4.0 | 0.00 | 0.00 | 0.00 | 78 | 1012.2 |
| 20260505112532 | 56 | 208 | 0.0 | 3.0 | 0.00 | 0.00 | 0.00 | 77 | 1012.1 |
| 20260505112039 | 56 | 208 | 1.0 | 2.0 | 0.00 | 0.00 | 0.00 | 77 | 1012.1 |
| 20260505111532 | 57 | 208 | 1.0 | 4.0 | 0.00 | 0.00 | 0.00 | 76 | 1011.9 |
| 20260505111033 | 57 | 208 | 2.0 | 6.0 | 0.00 | 0.00 | 0.00 | 75 | 1011.9 |
| 20260505110532 | 57 | 195 | 3.0 | 9.0 | 0.00 | 0.00 | 0.00 | 75 | 1011.9 |
| 20260505102028 | 57 | 196 | 3.0 | 6.0 | 0.00 | 0.00 | 0.00 | 73 | 1011.4 |
| 20260505101525 | 57 | 218 | 3.0 | 7.0 | 0.00 | 0.00 | 0.00 | 73 | 1011.3 |
| 20260505101017 | 57 | 189 | 2.0 | 7.0 | 0.00 | 0.00 | 0.00 | 73 | 1011.3 |
| 20260505100521 | 57 | 202 | 2.0 | 7.0 | 0.00 | 0.00 | 0.00 | 74 | 1011.4 |
| 20260505100016 | 56 | 191 | 3.0 | 8.0 | 0.00 | 0.00 | 0.00 | 74 | 1011.3 |
| 20260505095513 | 57 | 205 | 2.0 | 8.0 | 0.00 | 0.00 | 0.00 | 74 | 1011.4 |
| 20260505095012 | 57 | 162 | 2.0 | 12.0 | 0.00 | 0.00 | 0.00 | 74 | 1011.3 |
| 20260505094511 | 58 | 228 | 3.0 | 12.0 | 0.00 | 0.00 | 0.00 | 73 | 1011.3 |
| 20260505094012 | 58 | 211 | 3.0 | 9.0 | 0.00 | 0.00 | 0.00 | 73 | 1011.3 |
| 20260505093011 | 58 | 180 | 3.0 | 9.0 | 0.00 | 0.00 | 0.00 | 72 | 1011.4 |
| 20260505092511 | 59 | 177 | 4.0 | 11.0 | 0.00 | 0.00 | 0.00 | 71 | 1011.4 |
| 20260505092011 | 59 | 172 | 5.0 | 11.0 | 0.00 | 0.00 | 0.00 | 70 | 1011.3 |
| 20260505091512 | 59 | 170 | 5.0 | 10.0 | 0.00 | 0.00 | 0.00 | 71 | 1011.3 |
| 20260505091009 | 59 | 168 | 4.0 | 10.0 | 0.00 | 0.00 | 0.00 | 70 | 1011.3 |
| 20260505090507 | 58 | 208 | 3.0 | 10.0 | 0.00 | 0.00 | 0.00 | 71 | 1011.2 |
| 20260505090010 | 58 | 174 | 4.0 | 13.0 | 0.00 | 0.00 | 0.00 | 72 | 1011.3 |
| 20260505085507 | 58 | 242 | 4.0 | 13.0 | 0.00 | 0.00 | 0.00 | 72 | 1011.2 |
| 20260505085004 | 58 | 232 | 4.0 | 9.0 | 0.00 | 0.00 | 0.00 | 73 | 1011.3 |
| 20260505084505 | 58 | 238 | 3.0 | 9.0 | 0.00 | 0.00 | 0.00 | 73 | 1011.2 |
| 20260505084011 | 58 | 221 | 2.0 | 8.0 | 0.00 | 0.00 | 0.00 | 74 | 1011.2 |
| 20260505083503 | 58 | 244 | 2.0 | 9.0 | 0.00 | 0.00 | 0.00 | 73 | 1011.1 |
| 20260505083003 | 58 | 220 | 2.0 | 9.0 | 0.00 | 0.00 | 0.00 | 74 | 1011.1 |
| 20260505082502 | 57 | 211 | 2.0 | 5.0 | 0.00 | 0.00 | 0.00 | 74 | 1011.0 |
| 20260505082003 | 57 | 204 | 2.0 | 5.0 | 0.00 | 0.00 | 0.00 | 75 | 1011.1 |
| 20260505081502 | 57 | 155 | 2.0 | 7.0 | 0.00 | 0.00 | 0.00 | 75 | 1011.1 |
| 20260505081005 | 57 | 155 | 4.0 | 9.0 | 0.00 | 0.00 | 0.00 | 76 | 1011.2 |
| 20260505080504 | 57 | 156 | 4.0 | 9.0 | 0.00 | 0.00 | 0.00 | 76 | 1011.2 |
| 20260505080004 | 57 | 153 | 4.0 | 8.0 | 0.00 | 0.00 | 0.00 | 76 | 1011.2 |
| 20260505075505 | 57 | 143 | 5.0 | 10.0 | 0.00 | 0.00 | 0.00 | 77 | 1011.1 |
| 20260505075003 | 57 | 136 | 5.0 | 10.0 | 0.00 | 0.00 | 0.00 | 77 | 1011.1 |
| 20260505074503 | 57 | 142 | 5.0 | 8.0 | 0.00 | 0.00 | 0.00 | 78 | 1011.1 |
| 20260505074004 | 56 | 138 | 4.0 | 8.0 | 0.00 | 0.00 | 0.00 | 78 | 1011.0 |
| 20260505073504 | 56 | 158 | 3.0 | 7.0 | 0.00 | 0.00 | 0.00 | 79 | 1011.0 |
| 20260505073004 | 56 | 159 | 3.0 | 6.0 | 0.00 | 0.00 | 0.00 | 80 | 1011.0 |
| 20260505072502 | 55 | 167 | 3.0 | 6.0 | 0.00 | 0.00 | 0.00 | 80 | 1011.0 |
| 20260505072001 | 55 | 169 | 3.0 | 6.0 | 0.00 | 0.00 | 0.00 | 81 | 1011.0 |
| 20260505071502 | 54 | 170 | 3.0 | 6.0 | 0.00 | 0.00 | 0.00 | 81 | 1011.0 |
| 20260505071000 | 54 | 181 | 1.0 | 5.0 | 0.00 | 0.00 | 0.00 | 81 | 1011.0 |
| 20260505070501 | 54 | 236 | 1.0 | 3.0 | 0.00 | 0.00 | 0.00 | 80 | 1010.9 |
| 20260505070000 | 54 | 236 | 1.0 | 3.0 | 0.00 | 0.00 | 0.00 | 80 | 1010.9 |
| 20260505065458 | 54 | 237 | 0.0 | 2.0 | 0.00 | 0.00 | 0.00 | 80 | 1010.8 |
| 20260505065002 | 54 | 238 | 0.0 | 3.0 | 0.00 | 0.00 | 0.00 | 79 | 1011.0 |
| 20260505064456 | 55 | 238 | 1.0 | 3.0 | 0.00 | 0.00 | 0.00 | 79 | 1011.0 |
| 20260505063958 | 55 | 240 | 2.0 | 5.0 | 0.00 | 0.00 | 0.00 | 78 | 1011.1 |
| 20260505063458 | 56 | 240 | 2.0 | 5.0 | 0.00 | 0.00 | 0.00 | 77 | 1011.1 |
| 20260505062959 | 56 | 162 | 2.0 | 5.0 | 0.00 | 0.00 | 0.00 | 76 | 1011.0 |
| 20260505062457 | 56 | 161 | 2.0 | 3.0 | 0.00 | 0.00 | 0.00 | 75 | 1011.0 |
| 20260505061954 | 56 | 161 | 3.0 | 4.0 | 0.00 | 0.00 | 0.00 | 75 | 1011.0 |
| 20260505061452 | 56 | 161 | 3.0 | 4.0 | 0.00 | 0.00 | 0.00 | 76 | 1010.9 |
| 20260505060953 | 56 | 164 | 2.0 | 5.0 | 0.00 | 0.00 | 0.00 | 76 | 1011.0 |
| 20260505060453 | 56 | 165 | 1.0 | 5.0 | 0.00 | 0.00 | 0.00 | 77 | 1011.1 |
| 20260505055954 | 56 | 165 | 1.0 | 2.0 | 0.00 | 0.00 | 0.00 | 77 | 1011.0 |
| 20260505055456 | 56 | 165 | 0.0 | 2.0 | 0.00 | 0.00 | 0.00 | 76 | 1011.1 |
| 20260505054954 | 56 | 165 | 0.0 | 1.0 | 0.00 | 0.00 | 0.00 | 75 | 1011.1 |
| 20260505054448 | 57 | 165 | 1.0 | 5.0 | 0.00 | 0.00 | 0.00 | 74 | 1011.2 |
| 20260505053955 | 57 | 165 | 1.0 | 5.0 | 0.00 | 0.00 | 0.00 | 74 | 1011.1 |
| 20260505053451 | 58 | 165 | 2.0 | 5.0 | 0.00 | 0.00 | 0.00 | 73 | 1011.0 |
| 20260505052949 | 58 | 165 | 3.0 | 5.0 | 0.00 | 0.00 | 0.00 | 73 | 1011.1 |
| 20260505052447 | 58 | 182 | 4.0 | 6.0 | 0.00 | 0.00 | 0.00 | 72 | 1011.1 |
| 20260505051946 | 58 | 184 | 4.0 | 7.0 | 0.00 | 0.00 | 0.00 | 72 | 1011.0 |
| 20260505051445 | 59 | 139 | 4.0 | 9.0 | 0.00 | 0.00 | 0.00 | 71 | 1011.0 |
| 20260505050944 | 59 | 139 | 5.0 | 10.0 | 0.00 | 0.00 | 0.00 | 71 | 1011.0 |
| 20260505050439 | 59 | 202 | 6.0 | 11.0 | 0.00 | 0.00 | 0.00 | 71 | 1011.0 |
| 20260505041444 | 61 | 157 | 6.0 | 15.0 | 0.00 | 0.00 | 0.00 | 67 | 1010.8 |
| 20260505040940 | 61 | 157 | 5.0 | 15.0 | 0.00 | 0.00 | 0.00 | 67 | 1010.8 |
| 20260505040438 | 61 | 173 | 4.0 | 10.0 | 0.00 | 0.00 | 0.00 | 66 | 1010.8 |
| 20260505035937 | 62 | 168 | 4.0 | 10.0 | 0.00 | 0.00 | 0.00 | 66 | 1010.8 |
| 20260505035439 | 62 | 193 | 4.0 | 10.0 | 0.00 | 0.00 | 0.00 | 66 | 1010.7 |
| 20260505034940 | 62 | 182 | 4.0 | 10.0 | 0.00 | 0.00 | 0.00 | 66 | 1010.6 |
| 20260505034437 | 62 | 186 | 4.0 | 10.0 | 0.00 | 0.00 | 0.00 | 66 | 1010.7 |
| 20260505033936 | 62 | 233 | 4.0 | 10.0 | 0.00 | 0.00 | 0.00 | 65 | 1010.7 |
| 20260505033435 | 62 | 143 | 4.0 | 9.0 | 0.00 | 0.00 | 0.00 | 65 | 1010.7 |
| 20260505032942 | 62 | 203 | 4.0 | 9.0 | 0.00 | 0.00 | 0.00 | 64 | 1010.7 |
| 20260505032440 | 63 | 188 | 4.0 | 10.0 | 0.00 | 0.00 | 0.00 | 63 | 1010.7 |
| 20260505031936 | 63 | 170 | 5.0 | 11.0 | 0.00 | 0.00 | 0.00 | 63 | 1010.7 |
| 20260505031437 | 63 | 211 | 5.0 | 18.0 | 0.00 | 0.00 | 0.00 | 62 | 1010.8 |
| 20260505030935 | 63 | 208 | 5.0 | 18.0 | 0.00 | 0.00 | 0.00 | 62 | 1010.9 |
| 20260505030435 | 63 | 210 | 5.0 | 12.0 | 0.00 | 0.00 | 0.00 | 62 | 1010.8 |
| 20260505025936 | 63 | 214 | 4.0 | 12.0 | 0.00 | 0.00 | 0.00 | 62 | 1010.8 |
| 20260505025436 | 63 | 217 | 4.0 | 10.0 | 0.00 | 0.00 | 0.00 | 62 | 1010.9 |
| 20260505024933 | 63 | 217 | 5.0 | 10.0 | 0.00 | 0.00 | 0.00 | 61 | 1011.0 |
| 20260505024443 | 64 | 201 | 4.0 | 8.0 | 0.00 | 0.00 | 0.00 | 62 | 1010.9 |
| 20260505023933 | 64 | 180 | 4.0 | 11.0 | 0.00 | 0.00 | 0.00 | 61 | 1011.0 |
| 20260505023436 | 64 | 230 | 5.0 | 11.0 | 0.00 | 0.00 | 0.00 | 61 | 1010.9 |
| 20260505022931 | 64 | 213 | 5.0 | 14.0 | 0.00 | 0.00 | 0.00 | 61 | 1010.8 |
| 20260505022429 | 64 | 240 | 4.0 | 14.0 | 0.00 | 0.00 | 0.00 | 61 | 1010.9 |
| 20260505021932 | 64 | 220 | 5.0 | 11.0 | 0.00 | 0.00 | 0.00 | 61 | 1010.8 |
| 20260505021428 | 64 | 177 | 5.0 | 13.0 | 0.00 | 0.00 | 0.00 | 61 | 1010.8 |
| 20260505020930 | 64 | 257 | 5.0 | 14.0 | 0.00 | 0.00 | 0.00 | 61 | 1010.8 |
| 20260505020427 | 64 | 189 | 4.0 | 14.0 | 0.00 | 0.00 | 0.00 | 60 | 1010.8 |
| 20260505015928 | 64 | 193 | 4.0 | 9.0 | 0.00 | 0.00 | 0.00 | 61 | 1010.9 |
| 20260505015427 | 64 | 170 | 4.0 | 9.0 | 0.00 | 0.00 | 0.00 | 60 | 1010.7 |
| 20260505014926 | 64 | 178 | 4.0 | 10.0 | 0.00 | 0.00 | 0.00 | 59 | 1010.7 |
| 20260505014424 | 65 | 195 | 4.0 | 10.0 | 0.00 | 0.00 | 0.00 | 59 | 1010.6 |
| 20260505013922 | 65 | 204 | 4.0 | 12.0 | 0.00 | 0.00 | 0.00 | 58 | 1010.6 |
| 20260505013419 | 65 | 177 | 4.0 | 12.0 | 0.00 | 0.00 | 0.00 | 58 | 1010.5 |
| 20260505012919 | 65 | 148 | 5.0 | 12.0 | 0.00 | 0.00 | 0.00 | 58 | 1010.4 |
| 20260505012422 | 65 | 174 | 4.0 | 12.0 | 0.00 | 0.00 | 0.00 | 58 | 1010.4 |
| 20260505011920 | 65 | 183 | 4.0 | 11.0 | 0.00 | 0.00 | 0.00 | 57 | 1010.3 |
| 20260505011423 | 65 | 209 | 4.0 | 11.0 | 0.00 | 0.00 | 0.00 | 57 | 1010.4 |
| 20260505010919 | 65 | 199 | 4.0 | 10.0 | 0.00 | 0.00 | 0.00 | 57 | 1010.4 |
| 20260505010420 | 65 | 178 | 4.0 | 7.0 | 0.00 | 0.00 | 0.00 | 57 | 1010.3 |
| 20260505005919 | 65 | 147 | 4.0 | 9.0 | 0.00 | 0.00 | 0.00 | 56 | 1010.1 |
| 20260505005422 | 65 | 217 | 4.0 | 9.0 | 0.00 | 0.00 | 0.00 | 55 | 1010.0 |
| 20260505004920 | 66 | 175 | 4.0 | 11.0 | 0.00 | 0.00 | 0.00 | 55 | 1009.8 |
| 20260505004419 | 66 | 147 | 4.0 | 11.0 | 0.00 | 0.00 | 0.00 | 55 | 1009.8 |
| 20260505003919 | 66 | 188 | 4.0 | 8.0 | 0.00 | 0.00 | 0.00 | 55 | 1009.9 |
| 20260505003419 | 66 | 170 | 4.0 | 9.0 | 0.00 | 0.00 | 0.00 | 53 | 1009.8 |
| 20260505002919 | 66 | 159 | 4.0 | 11.0 | 0.00 | 0.00 | 0.00 | 53 | 1009.9 |
| 20260505002419 | 67 | 178 | 5.0 | 12.0 | 0.00 | 0.00 | 0.00 | 53 | 1009.8 |
| 20260505001919 | 67 | 148 | 5.0 | 12.0 | 0.00 | 0.00 | 0.00 | 52 | 1009.7 |
| 20260505001413 | 67 | 161 | 4.0 | 11.0 | 0.00 | 0.00 | 0.00 | 52 | 1009.7 |
| 20260505000914 | 67 | 159 | 4.0 | 11.0 | 0.00 | 0.00 | 0.00 | 52 | 1009.7 |
| 20260505000413 | 67 | 149 | 5.0 | 10.0 | 0.00 | 0.00 | 0.00 | 51 | 1009.7 |
| 20260504235913 | 67 | 135 | 5.0 | 9.0 | 0.00 | 0.00 | 0.00 | 51 | 1009.7 |
| 20260504235414 | 68 | 142 | 5.0 | 11.0 | 0.00 | 0.00 | 0.00 | 50 | 1009.7 |
| 20260504234916 | 68 | 217 | 5.0 | 11.0 | 0.00 | 0.00 | 0.00 | 51 | 1009.7 |
| 20260504234415 | 68 | 183 | 3.0 | 10.0 | 0.00 | 0.00 | 0.00 | 50 | 1009.6 |
| 20260504233921 | 68 | 195 | 5.0 | 12.0 | 0.00 | 0.00 | 0.00 | 50 | 1009.6 |
| 20260504233418 | 68 | 177 | 6.0 | 13.0 | 0.00 | 0.00 | 0.00 | 50 | 1009.6 |
| 20260504232913 | 69 | 176 | 6.0 | 13.0 | 0.00 | 0.00 | 0.00 | 49 | 1009.5 |
| 20260504232417 | 69 | 171 | 5.0 | 12.0 | 0.00 | 0.00 | 0.00 | 48 | 1009.6 |
| 20260504231913 | 69 | 168 | 6.0 | 15.0 | 0.00 | 0.00 | 0.00 | 49 | 1009.5 |
| 20260504231414 | 69 | 101 | 7.0 | 15.0 | 0.00 | 0.00 | 0.00 | 47 | 1009.5 |
| 20260504230918 | 69 | 149 | 7.0 | 13.0 | 0.00 | 0.00 | 0.00 | 48 | 1009.5 |
| 20260504230413 | 69 | 179 | 6.0 | 17.0 | 0.00 | 0.00 | 0.00 | 47 | 1009.6 |
| 20260504225913 | 70 | 257 | 6.0 | 17.0 | 0.00 | 0.00 | 0.00 | 48 | 1009.5 |
| 20260504225421 | 70 | 197 | 7.0 | 17.0 | 0.00 | 0.00 | 0.00 | 47 | 1009.5 |
| 20260504224912 | 69 | 209 | 6.0 | 15.0 | 0.00 | 0.00 | 0.00 | 47 | 1009.6 |
| 20260504224416 | 70 | 202 | 6.0 | 15.0 | 0.00 | 0.00 | 0.00 | 46 | 1009.6 |
| 20260504223916 | 70 | 178 | 7.0 | 15.0 | 0.00 | 0.00 | 0.00 | 47 | 1009.6 |
| 20260504223412 | 70 | 209 | 6.0 | 15.0 | 0.00 | 0.00 | 0.00 | 47 | 1009.6 |
| 20260504222911 | 70 | 197 | 5.0 | 12.0 | 0.00 | 0.00 | 0.00 | 49 | 1009.5 |
| 20260504222415 | 70 | 161 | 4.0 | 15.0 | 0.00 | 0.00 | 0.00 | 47 | 1009.7 |
| 20260504221909 | 70 | 195 | 6.0 | 15.0 | 0.00 | 0.00 | 0.00 | 47 | 1009.7 |
| 20260504221415 | 71 | 209 | 6.0 | 14.0 | 0.00 | 0.00 | 0.00 | 46 | 1009.6 |
| 20260504220911 | 72 | 160 | 4.0 | 10.0 | 0.00 | 0.00 | 0.00 | 48 | 1009.7 |
| 20260504220413 | 72 | 170 | 5.0 | 16.0 | 0.00 | 0.00 | 0.00 | 47 | 1009.6 |
| 20260504215912 | 71 | 174 | 5.0 | 16.0 | 0.00 | 0.00 | 0.00 | 45 | 1009.5 |
| 20260504215413 | 71 | 162 | 4.0 | 10.0 | 0.00 | 0.00 | 0.00 | 49 | 1009.4 |
| 20260504214910 | 71 | 211 | 4.0 | 13.0 | 0.00 | 0.00 | 0.00 | 47 | 1009.6 |
| 20260504214413 | 71 | 167 | 5.0 | 14.0 | 0.00 | 0.00 | 0.00 | 49 | 1009.5 |